[[{"header":{"parameterUnit":"m.s-1","parameterCategory":1,"la1":30.2991,"la2":30.254,"lo1":-89.0895,"lo2":-89.0444,"dy":0.0017,"dx":0.0017,"nx":28,"ny":28,"refTime":"2025-07-08T09:00:00:Z","depth":0,"parameterNumber":2,"parameterNumberName":"U-component_of_WINDS"},"data":[0,0,0,0,0,0,0,0,0,0,0,0,0,0,0,0,0,0,0,0,0,0,0,0,0,0,0,0,0,0,0,0,0,0,0,0,0,0,0,0,0,0,0,0,0,0,0,0,0,0,0,0,0,0,0,0,0,0,2.2268,2.227,0,2.2479,2.2482,2.2484,2.2552,2.2551,2.255,2.2549,2.2767,2.2774,2.2781,0,0,0,0,0,0,0,0,0,0,0,0,0,2.1922,2.1928,2.2267,2.227,2.2273,2.2479,2.2482,2.2485,2.2552,2.2551,2.255,2.2548,2.2765,2.2773,2.2781,0,0,0,0,0,0,0,0,0,0,0,0,0,2.2096,2.193,2.2267,2.2331,2.2339,2.2478,2.2482,2.2486,2.2552,2.2551,2.2549,2.2548,2.2762,2.2772,2.2782,2.2874,0,0,2.2813,2.2817,0,0,0,0,0,0,0,0,2.2086,2.2109,2.2319,2.2327,2.2336,2.2488,2.244,2.2616,2.2553,2.2471,2.2549,2.2547,2.2676,2.2693,2.2736,2.2884,2.2893,2.2814,2.282,2.2824,2.2827,0,0,0,0,0,0,0,2.2074,2.21,2.2351,2.2322,2.2332,2.2349,2.2373,2.2474,2.2579,2.2478,2.2484,2.2508,2.268,2.2726,2.2741,2.2897,2.2814,2.2823,2.2829,2.2833,2.313,2.3132,0,0,0,0,0,0,2.2051,2.209,2.2345,2.2358,2.2205,2.2357,2.2383,2.244,2.2578,2.2598,2.2509,2.251,2.2709,2.2729,2.2749,2.2865,2.2824,2.2834,2.284,2.3128,2.313,2.3132,0,0,0,0,0,0,2.2043,2.2073,2.2336,2.2225,2.226,2.2364,2.2428,2.2445,2.2491,2.2601,2.262,2.2536,2.2709,2.2735,2.2842,2.2873,2.2838,2.2848,2.3126,2.3129,2.3131,2.3096,0,0,0,0,0,0,2.2033,2.207,2.2106,2.2226,2.2266,2.2425,2.243,2.2451,2.2508,2.2512,2.2632,2.265,2.271,2.2827,2.2852,2.2886,2.2855,2.3124,2.3127,2.313,2.3095,2.3097,2.3099,0,0,0,0,0,2.2021,2.2088,2.2107,2.2138,2.2312,2.2426,2.2449,2.2516,2.251,2.2547,2.2618,2.2647,2.2866,2.2837,2.2866,2.2904,2.3122,2.3126,2.313,2.3094,2.3097,2.3099,0,0,0,0,0,0,2.197,2.2105,2.2128,2.2236,2.2319,2.2437,2.2486,2.2517,2.2604,2.2604,2.2683,2.271,2.281,2.2868,2.2834,2.2999,2.2995,2.3005,2.2958,2.2961,2.2963,2.2947,2.2864,0,0,0,0,0,2.1971,2.2052,2.2166,2.225,2.2291,2.2381,2.2433,2.2477,2.2567,2.2602,2.2681,2.2767,2.2855,2.2912,2.2999,2.3104,2.3131,2.3145,2.3147,2.3148,2.3155,2.3214,2.3221,2.3146,2.3146,2.3146,0,0,2.1974,2.2058,2.2104,2.2242,2.2312,2.2393,2.241,2.2497,2.2558,2.2616,2.2721,2.2781,2.2883,2.2989,2.3039,2.304,2.3182,2.3153,2.3153,2.3161,2.3219,2.3226,2.3233,2.3149,2.3148,2.3148,0,0,2.2022,2.2094,2.2171,2.2241,2.2346,2.2406,2.2424,2.2538,2.258,2.2687,2.2732,2.2807,2.2957,2.3027,2.3083,2.3156,2.3186,2.3183,2.3194,2.325,2.3256,2.3262,2.3287,2.3295,2.319,2.319,2.319,0,2.2013,2.2138,2.2208,2.2291,2.235,2.2406,2.2485,2.2549,2.2677,2.2716,2.2715,2.2905,2.2977,2.31,2.3117,2.3161,2.3184,2.3169,2.325,2.3256,2.3263,2.3287,2.3297,2.3189,2.3189,2.3189,2.3189,0,2.2121,2.2207,2.2257,2.2379,2.2444,2.2525,2.2606,2.2664,2.2702,2.2761,2.2869,2.2958,2.3064,2.3096,2.3135,2.3224,2.3221,2.3234,2.3231,2.3267,2.3292,2.3302,2.3187,2.3188,2.3188,2.3188,0,0,2.2142,2.2301,2.2318,2.2373,2.2493,2.2561,2.2645,2.2748,2.2795,2.2882,2.2953,2.3079,2.3091,2.3154,2.3201,2.3251,2.3302,2.3258,2.3261,2.3262,2.3405,2.3393,2.3403,2.3323,2.3325,2.3327,2.3396,0,2.2204,2.2355,2.242,2.2541,2.2621,2.2675,2.2747,2.2829,2.2886,2.2963,2.3028,2.3115,2.3125,2.3163,2.3215,2.3285,2.3332,2.3281,2.339,2.3393,2.3361,2.3417,2.3405,2.3466,2.3406,2.3408,2.3409,0,2.2297,2.2383,2.2512,2.2621,2.2657,2.2721,2.282,2.2893,2.2986,2.3025,2.3095,2.3139,2.3229,2.322,2.3345,2.3308,2.3357,2.3398,2.3402,2.3414,2.3402,2.3429,2.3488,2.3496,2.3425,2.3424,2.3423,0,2.2297,2.2446,2.2542,2.2588,2.2719,2.2762,2.2819,2.2911,2.2968,2.3055,2.3093,2.3189,2.3242,2.3315,2.3385,2.3372,2.3502,2.35,2.3536,2.3534,2.356,2.3558,2.3626,2.3593,2.3593,2.3593,2.3593,0,2.2359,2.2436,2.2544,2.2603,2.269,2.2764,2.2848,2.2908,2.299,2.3061,2.3114,2.318,2.3268,2.3346,2.3401,2.3495,2.3518,2.3552,2.3565,2.3547,2.3542,2.3579,2.3576,2.3596,2.3595,2.3594,2.3594,0,2.2374,2.245,2.2558,2.2672,2.2703,2.2762,2.286,2.2919,2.298,2.307,2.3095,2.319,2.3284,2.336,2.3483,2.352,2.3618,2.3634,2.3586,2.3593,2.3625,2.362,2.3719,2.3735,2.3691,2.3691,2.3692,0,2.2408,2.2468,2.2589,2.264,2.2696,2.2778,2.2837,2.2912,2.2971,2.3082,2.3127,2.3225,2.3307,2.3454,2.3534,2.3628,2.3646,2.3674,2.3661,2.364,2.3645,2.364,2.3646,2.3675,2.3675,2.3675,2.3675,0,2.246,2.2494,2.2576,2.2672,2.274,2.2819,2.2899,2.2939,2.3029,2.3092,2.3188,2.3251,2.3377,2.3472,2.3575,2.3634,2.3669,2.3679,2.3692,2.3673,2.3642,2.3658,2.3588,2.3676,2.3676,2.3676,2.3676,2.3676,2.2485,2.254,2.2633,2.2723,2.2791,2.2865,2.2926,2.2994,2.3075,2.3182,2.3222,2.332,2.3412,2.3553,2.3612,2.369,2.3694,2.3714,2.3718,2.3722,2.3718,2.363,2.3709,2.371,2.371,2.371,2.371,0,2.2538,2.2601,2.2683,2.2793,2.2863,2.2891,2.2981,2.3038,2.3123,2.3206,2.3285,2.3395,2.3488,2.3575,2.3673,2.3718,2.3737,2.3741,2.3738,2.3751,2.371,2.3688,2.3724,2.3724,2.3724,2.3724,2.3724,2.3724,2.2574,2.2668,2.2714,2.2843,2.2905,2.3001,2.305,2.3119,2.3185,2.3305,2.3382,2.3438,2.3523,2.3627,2.3713,2.3736,2.3769,2.3769,2.3796,2.3756,2.3754,2.3751,2.3731,2.3776,2.3776,2.3831,2.3831,2.3831]},{"header":{"parameterUnit":"m.s-1","parameterCategory":1,"la1":30.2991,"la2":30.254,"lo1":-89.0895,"lo2":-89.0444,"dy":0.0017,"dx":0.0017,"nx":28,"ny":28,"refTime":"2025-07-08T09:00:00:Z","depth":0,"parameterNumber":3,"parameterNumberName":"V-component_of_WINDS"},"data":[0,0,0,0,0,0,0,0,0,0,0,0,0,0,0,0,0,0,0,0,0,0,0,0,0,0,0,0,0,0,0,0,0,0,0,0,0,0,0,0,0,0,0,0,0,0,0,0,0,0,0,0,0,0,0,0,0,0,4.6149,4.6148,0,4.6128,4.6127,4.6127,4.6054,4.6053,4.6051,4.605,4.6029,4.603,4.6031,0,0,0,0,0,0,0,0,0,0,0,0,0,4.6127,4.6128,4.6149,4.6148,4.6148,4.6128,4.6127,4.6127,4.6055,4.6053,4.6051,4.6049,4.6029,4.603,4.6031,0,0,0,0,0,0,0,0,0,0,0,0,0,4.6124,4.6128,4.6149,4.611,4.6106,4.6128,4.6127,4.6127,4.6055,4.6053,4.605,4.6048,4.6028,4.603,4.6031,4.6089,0,0,4.6036,4.6036,0,0,0,0,0,0,0,0,4.6124,4.6125,4.6116,4.6112,4.6108,4.6091,4.6112,4.6114,4.6056,4.6075,4.605,4.6047,4.6052,4.6051,4.6053,4.6089,4.6088,4.6036,4.6037,4.6037,4.6038,0,0,0,0,0,0,0,4.6125,4.6126,4.614,4.6116,4.6111,4.6093,4.609,4.6112,4.6077,4.6073,4.6067,4.6066,4.6049,4.6051,4.6052,4.6087,4.6036,4.6037,4.6038,4.6039,4.6168,4.6171,0,0,0,0,0,0,4.613,4.6126,4.6141,4.614,4.611,4.6096,4.6092,4.6099,4.6077,4.6071,4.6068,4.6062,4.605,4.605,4.6051,4.6116,4.6037,4.6039,4.604,4.6166,4.6169,4.6172,0,0,0,0,0,0,4.613,4.6132,4.6142,4.6131,4.6131,4.6099,4.6107,4.61,4.6102,4.6073,4.6067,4.6076,4.6048,4.6049,4.608,4.6114,4.6039,4.6041,4.6163,4.6167,4.617,4.6248,0,0,0,0,0,0,4.613,4.6133,4.6155,4.6132,4.6132,4.6172,4.6109,4.6101,4.6105,4.6097,4.6079,4.6074,4.6046,4.6078,4.6081,4.6115,4.6042,4.616,4.6165,4.6169,4.6243,4.6254,4.6265,0,0,0,0,0,4.6129,4.6178,4.6156,4.6158,4.6159,4.6174,4.6174,4.614,4.6108,4.6129,4.611,4.6075,4.611,4.6082,4.6085,4.612,4.6157,4.6163,4.6169,4.6238,4.6252,4.6264,0,0,0,0,0,0,4.6205,4.6174,4.615,4.6193,4.6186,4.6162,4.6188,4.6157,4.616,4.6153,4.6112,4.6109,4.6146,4.6136,4.6105,4.6174,4.6128,4.6134,4.6179,4.6193,4.6203,4.6205,4.6043,0,0,0,0,0,4.6227,4.6242,4.6214,4.6254,4.6253,4.6221,4.6226,4.6201,4.6193,4.619,4.6174,4.6168,4.6177,4.6185,4.6192,4.6241,4.6236,4.6266,4.6277,4.6287,4.6293,4.6317,4.633,4.6191,4.6191,4.6191,0,0,4.6272,4.6257,4.6269,4.6269,4.6261,4.6277,4.6219,4.6239,4.625,4.6193,4.6221,4.6209,4.62,4.624,4.6257,4.6233,4.633,4.6294,4.6302,4.6302,4.6324,4.6337,4.6349,4.6195,4.6194,4.6193,0,0,4.6362,4.6353,4.6385,4.6378,4.6366,4.6345,4.6353,4.6332,4.6322,4.635,4.6307,4.632,4.6338,4.6332,4.6332,4.6419,4.6386,4.6423,4.648,4.6504,4.6515,4.6524,4.6555,4.6566,4.6429,4.6429,4.6429,0,4.642,4.6442,4.6405,4.6427,4.6428,4.6377,4.6409,4.6404,4.6396,4.6398,4.6371,4.6392,4.6382,4.6419,4.644,4.6442,4.6449,4.6424,4.6516,4.6525,4.6534,4.6562,4.6574,4.6434,4.6433,4.6433,4.6432,0,4.6513,4.6529,4.6556,4.6548,4.6553,4.658,4.6547,4.6556,4.653,4.6512,4.654,4.6526,4.6529,4.6536,4.6512,4.6571,4.6556,4.6524,4.6476,4.6552,4.6578,4.6588,4.644,4.6438,4.6437,4.6436,0,0,4.665,4.6621,4.6632,4.6627,4.661,4.6622,4.6647,4.6649,4.6657,4.6653,4.6672,4.6688,4.6658,4.6657,4.6632,4.6653,4.6722,4.6618,4.6617,4.6637,4.6784,4.6808,4.6821,4.67,4.6702,4.6704,4.6785,0,4.6734,4.6774,4.6741,4.6787,4.68,4.6752,4.6773,4.6765,4.6748,4.6758,4.6739,4.6751,4.671,4.6709,4.6728,4.671,4.6751,4.6704,4.6717,4.6718,4.672,4.6835,4.686,4.6938,4.6795,4.6797,4.6798,0,4.6838,4.6838,4.6885,4.6864,4.6869,4.6888,4.6887,4.6897,4.6887,4.6873,4.6873,4.6841,4.6863,4.6818,4.6848,4.6816,4.682,4.6812,4.6814,4.6813,4.6762,4.6837,4.6962,4.6973,4.6814,4.6812,4.6811,0,4.6932,4.6944,4.6973,4.6971,4.6948,4.6962,4.6953,4.6941,4.6944,4.6944,4.6945,4.6948,4.6949,4.6952,4.6922,4.6891,4.6955,4.6907,4.6944,4.6945,4.6959,4.6959,4.7086,4.6964,4.6963,4.6963,4.6963,0,4.7029,4.7059,4.7014,4.7032,4.7065,4.7027,4.706,4.7046,4.7035,4.7049,4.7008,4.7022,4.6982,4.6993,4.6969,4.6997,4.6998,4.6988,4.6981,4.6991,4.6992,4.6992,4.6986,4.6966,4.6966,4.6965,4.6964,0,4.7139,4.711,4.7139,4.7114,4.7109,4.7134,4.7112,4.7128,4.7108,4.7127,4.7129,4.7098,4.7108,4.7079,4.7084,4.7068,4.7109,4.7094,4.7112,4.7107,4.7145,4.7142,4.7276,4.7291,4.7161,4.7162,4.7163,0,4.7203,4.7224,4.7202,4.7208,4.7201,4.7212,4.7215,4.7179,4.7183,4.7173,4.719,4.7196,4.7199,4.7217,4.7195,4.7199,4.7183,4.723,4.7183,4.7192,4.7183,4.7181,4.7183,4.7239,4.7241,4.7242,4.7243,0,4.7318,4.7302,4.7307,4.7308,4.7312,4.7311,4.7306,4.7314,4.7275,4.7283,4.7291,4.7294,4.7299,4.7305,4.7304,4.7295,4.7263,4.7258,4.7267,4.7277,4.7286,4.728,4.7137,4.7255,4.7254,4.7253,4.7253,4.7252,4.7405,4.7422,4.7408,4.7416,4.7408,4.7405,4.7418,4.74,4.7407,4.7407,4.7386,4.7399,4.7388,4.7383,4.7377,4.7387,4.7366,4.7378,4.7381,4.7385,4.7391,4.7285,4.7387,4.7387,4.7386,4.7386,4.7386,0,4.7517,4.7506,4.7513,4.7508,4.7513,4.7482,4.7476,4.7482,4.7494,4.7487,4.749,4.75,4.7506,4.7485,4.7488,4.75,4.7485,4.7502,4.75,4.7498,4.7411,4.7402,4.7514,4.7514,4.7514,4.7514,4.7514,4.7514,4.7576,4.7602,4.7585,4.7607,4.7596,4.7608,4.7607,4.7604,4.7597,4.761,4.7614,4.76,4.7587,4.7588,4.7592,4.7586,4.7589,4.761,4.7599,4.7517,4.7505,4.7493,4.7485,4.7612,4.7612,4.7686,4.7686,4.7687]}]]